Location: Crescent
(42.8242°N, 73.7329°W)
Time: 02:28:13
(UTC+00:00)

Tiros 1 - Pass Details

Date: 17 February 2026
Orbit: 618 x 649 km, 48.4° (Epoch: 13 March)

Event Time Altitude Azimuth Distance (km) Brightness Sun altitude
Rises 17:56:20 0° 294° (WNW) 2,895 10.4 34.3°
Reaches altitude 10° 17:58:42 10° 298° (WNW) 1,985 9.6 34.2°
Maximum altitude 18:03:11 57° 17° (NNE) 731 7.5 34.0°
Drops below altitude 10° 18:07:40 10° 97° (E) 1,977 9.6 33.8°
Sets 18:10:00 0° 101° (ESE) 2,882 10.4 33.6°
